Location: Bieg
(49.3499°N, 10.3835°E)
Time: 23:14:47
(UTC+00:00)

Cosmos 1346 Rocket - Pass Details

Date: 19 August 2024
Orbit: 503 x 516 km, 81.2° (Epoch: 10 September)

Event Time Altitude Azimuth Distance (km) Brightness Sun altitude
Exits shadow 01:11:26 60° 343° (NNW) 583 3.0 -23.5°
Drops below altitude 10° 01:14:40 10° 9° (N) 1,729 6.3 -23.2°
Sets 01:16:49 0° 11° (N) 2,621 7.5 -23.0°
